Wind_Speed
2 1 1 0 1 2 3 3 4 4 5 5 5 5 5 4 4 3 2 2 3 4 5 6 5 5 5 4 4 4 4 4 5 4 4 3 3 3 2 2 2 2 2
2 1 1 1 1 2 3 2 3 3 4 5 5 5 5 4 4 3 2 2 3 3 5 5 5 5 4 4 3 3 3 3 4 4 4 4 3 2 2 3 3 3 3
2 2 1 2 2 2 2 2 3 2 4 4 4 4 4 4 4 3 2 1 2 3 3 3 5 5 4 3 3 3 3 3 4 4 4 4 3 2 2 3 3 3 4
2 2 2 2 2 2 2 2 2 2 3 3 3 3 3 3 3 3 2 2 2 3 3 3 4 4 3 3 3 3 3 3 4 4 4 4 3 3 3 3 4 4 4
3 2 2 2 2 2 2 2 1 2 3 3 3 3 2 2 2 2 2 2 3 3 3 3 3 4 4 4 4 4 3 3 4 5 6 4 4 4 4 4 4 5 5
3 2 2 1 1 1 1 1 1 1 2 3 3 3 3 3 3 2 3 3 3 3 4 4 4 5 5 5 5 5 5 5 5 6 6 6 5 5 5 4 4 4 5
4 3 3 2 1 1 1 1 0 1 1 1 2 3 3 3 3 3 3 4 4 4 4 5 5 4 5 5 5 5 5 5 6 6 6 6 6 6 6 5 5 5 5
5 4 4 3 2 1 1 1 1 1 1 1 1 2 3 4 4 3 4 4 4 4 4 5 5 5 5 5 6 6 6 6 7 7 8 7 7 7 7 7 6 6 6
5 5 5 3 2 2 2 1 2 2 2 2 2 2 3 3 3 4 5 5 5 5 5 5 6 6 6 6 6 6 6 7 8 8 8 7 7 8 8 8 8 8 8
4 5 5 5 4 3 3 3 3 3 2 3 3 3 3 3 4 5 5 5 5 6 5 5 5 6 7 6 6 7 8 8 8 9 8 8 8 8 8 8 9 9 8
4 4 5 5 4 4 4 3 3 3 3 3 3 3 3 4 4 4 4 5 6 6 6 6 6 6 7 7 7 6 7 8 8 9 8 8 9 9 9 9 9 9 9
4 4 5 5 5 5 4 3 3 3 4 3 3 3 3 4 4 4 5 5 6 7 7 7 7 7 7 7 7 7 8 8 8 8 8 8 9 9 9 10 9 9 9
5 5 4 5 5 5 4 4 4 5 5 5 4 4 4 4 5 5 6 6 7 7 7 7 7 8 8 8 8 8 8 8 9 8 8 8 8 8 9 9 9 9 9
5 5 5 5 5 5 5 5 5 5 5 5 5 5 5 5 6 6 7 7 7 7 8 7 7 8 8 9 9 9 10 9 9 9 9 10 9 9 10 10 10 10 9
6 6 6 5 5 5 5 6 6 6 6 6 6 6 6 7 7 7 7 7 7 7 8 8 8 9 9 9 10 10 10 10 9 10 10 10 10 10 10 11 11 11 10
7 7 6 6 6 6 6 6 6 7 6 7 6 7 7 8 8 7 7 7 7 8 8 8 8 9 8 9 10 10 10 10 10 10 11 11 10 11 11 11 11 11 11
8 7 7 6 6 7 7 7 7 7 7 6 7 7 7 8 8 8 8 8 8 8 9 8 8 8 9 9 9 10 10 11 10 11 11 11 11 11 11 11 11 11 11
9 8 8 7 7 8 8 8 8 8 7 7 8 8 8 9 9 9 9 9 9 9 9 9 8 9 9 9 10 10 10 11 11 11 10 11 12 11 11 11 11 11 10
9 9 8 8 9 9 9 9 9 9 9 8 9 10 10 10 10 10 10 10 9 9 9 9 9 9 10 10 10 10 10 11 11 11 10 10 10 10 10 10 10 10 10
10 9 9 9 9 10 10 10 10 10 9 10 10 10 11 11 11 10 10 10 10 10 10 9 10 10 10 11 10 10 11 12 11 10 10 9 9 10 10 10 10 10 10
10 10 10 10 10 10 11 11 11 11 10 10 10 11 11 12 11 11 10 11 10 10 10 10 10 10 10 11 11 11 11 11 11 10 10 10 10 10 10 10 10 10 10
11 10 11 11 11 12 12 12 12 11 12 11 12 12 12 12 12 11 11 11 10 11 11 11 11 11 11 11 12 12 11 10 11 10 10 10 10 10 11 10 10 10 10
12 12 12 12 13 13 13 13 13 12 12 12 13 13 13 13 12 11 12 12 11 11 11 11 11 12 12 12 12 13 12 11 12 12 12 11 11 11 11 11 11 11 11
12 12 12 13 13 13 14 13 13 13 13 13 13 14 14 13 13 12 12 12 12 11 11 12 12 12 13 13 13 13 13 12 13 12 13 13 12 13 13 12 12 12 12
13 13 13 14 14 14 14 14 14 14 14 14 14 14 14 13 12 12 12 12 12 12 12 12 12 13 14 14 13 14 13 13 14 13 13 13 13 13 13 13 13 13 13
14 14 14 15 15 15 14 14 14 14 14 15 15 15 15 14 13 12 13 13 13 12 12 13 13 13 14 14 13 14 14 14 14 14 14 14 14 14 14 15 15 15 14
Wind_Direction
48 63 77 191 204 183 177 182 184 187 183 177 178 183 183 187 189 193 199 198 192 202 206 208 213 207 208 208 209 217 220 223 217 219 220 221 205 204 222 234 240 253 281
45 24 62 50 151 166 169 178 180 190 184 179 184 188 190 193 199 202 215 219 205 206 210 212 213 210 207 216 224 227 222 222 226 224 221 217 226 227 220 237 248 252 268
39 28 59 96 130 143 166 168 167 179 174 180 186 191 197 200 205 213 212 226 223 229 221 211 209 206 202 218 230 227 228 234 240 233 229 232 246 241 249 252 258 258 263
21 8 47 95 124 136 143 158 187 181 180 177 172 179 194 205 214 214 211 225 234 242 223 215 200 197 201 221 231 231 244 259 253 250 245 245 252 256 266 273 264 263 268
24 25 37 83 105 123 128 124 143 175 188 178 184 191 203 215 230 230 226 230 240 237 228 226 215 207 210 225 237 240 249 270 265 264 260 260 266 273 278 280 273 270 267
25 20 28 67 111 133 136 109 109 104 165 181 195 213 217 224 237 249 256 260 260 246 232 230 231 225 226 233 240 243 251 264 268 270 265 261 263 266 274 273 273 269 268
28 26 41 52 68 85 106 107 71 43 137 165 204 231 237 247 251 252 260 267 265 265 255 244 233 227 236 242 245 248 254 264 267 268 266 263 261 260 263 268 271 265 268
29 25 25 35 45 42 30 359 326 311 330 323 265 248 254 263 257 251 260 271 271 273 271 258 251 240 239 247 252 258 267 271 267 268 266 262 261 261 263 268 270 273 272
16 20 13 14 13 8 3 348 317 305 312 314 311 297 290 281 272 267 266 271 273 277 277 272 272 269 256 258 260 262 270 272 273 274 269 265 263 265 266 268 271 272 270
14 14 10 12 10 358 347 337 326 316 312 314 318 313 313 302 291 278 275 275 277 277 278 280 282 280 276 267 268 269 270 273 278 281 279 271 266 264 266 267 272 273 273
10 3 3 3 4 357 342 335 333 335 330 330 330 315 299 294 297 283 280 280 281 282 286 280 278 277 280 274 271 275 275 273 278 283 277 271 270 269 267 269 271 274 276
5 359 1 4 358 348 340 341 337 339 336 327 320 323 303 294 292 291 285 284 284 283 285 282 285 282 281 279 275 275 276 270 278 285 280 277 277 278 274 273 273 276 281
359 359 358 1 355 345 341 334 332 330 322 323 316 311 305 293 292 292 290 287 286 287 288 286 285 281 276 276 276 277 276 275 278 283 284 282 279 282 280 278 280 282 284
359 1 358 355 346 340 332 321 322 319 314 310 306 307 306 303 298 296 292 292 292 292 290 290 284 280 279 281 279 274 274 277 281 284 283 281 280 283 282 279 279 281 284
359 356 358 4 355 345 335 328 319 310 307 306 305 304 303 302 302 300 296 295 297 298 295 293 289 286 285 282 280 275 277 276 282 282 281 282 282 280 276 275 276 278 280
353 355 357 356 353 345 338 333 328 318 309 309 308 307 308 306 304 302 299 297 299 300 296 291 291 290 288 288 286 280 277 276 283 285 283 282 281 279 277 276 275 276 278
349 351 350 348 346 342 342 335 330 327 319 313 310 305 304 307 306 300 298 298 298 299 298 294 293 292 291 292 289 282 277 277 286 288 286 283 281 278 278 278 278 278 277
343 339 338 340 341 343 344 340 332 325 321 317 313 310 308 307 307 301 300 299 297 298 298 295 292 291 293 293 295 287 281 283 284 284 279 280 281 281 280 279 279 280 281
337 338 337 338 338 336 336 337 338 332 323 316 313 314 313 309 307 304 300 298 296 298 294 292 290 292 293 292 294 294 286 284 286 285 280 278 279 280 279 277 279 282 281
327 328 329 331 334 337 336 334 331 327 319 315 314 313 311 311 308 303 298 294 291 291 290 289 289 289 290 291 290 290 289 283 284 285 281 279 280 279 279 280 283 283 280
320 316 318 323 326 329 331 328 325 322 320 317 316 315 312 309 308 306 301 295 292 289 287 285 285 289 292 292 292 288 287 284 284 283 279 279 277 275 277 276 278 282 280
317 315 317 320 321 323 323 322 322 321 321 320 318 315 314 310 306 305 304 302 298 292 290 288 285 288 292 293 295 298 297 287 284 289 285 283 279 277 280 280 281 279 275
315 315 317 319 320 320 320 318 317 318 320 319 317 317 316 316 311 306 303 300 300 295 292 291 291 289 292 294 295 299 301 295 291 288 286 286 285 283 283 280 277 277 275
311 313 313 314 315 316 316 314 314 315 316 317 316 316 318 316 314 310 307 301 298 298 295 293 293 292 294 295 297 298 297 294 294 292 287 285 283 282 282 277 273 272 271
305 310 311 311 312 313 314 313 313 313 315 317 317 316 318 315 311 311 311 309 302 298 295 293 292 292 294 296 295 296 297 294 293 296 292 287 283 281 279 276 273 272 272
298 303 306 308 308 309 309 311 311 312 313 315 315 313 315 313 306 307 308 308 305 304 300 292 292 293 295 296 297 296 294 295 294 293 293 291 284 280 277 276 276 274 270
Height
5877 5876 5876 5877 5877 5878 5878 5878 5879 5879 5880 5880 5881 5881 5882 5883 5883 5883 5883 5883 5883 5884 5884 5885 5885 5886 5886 5886 5887 5887 5887 5887 5888 5890 5890 5891 5891 5892 5892 5893 5894 5894 5894
5878 5877 5878 5878 5878 5878 5879 5879 5879 5880 5880 5881 5881 5882 5882 5883 5883 5883 5883 5883 5883 5884 5884 5885 5885 5886 5886 5886 5886 5886 5886 5887 5888 5889 5890 5891 5891 5892 5892 5893 5893 5894 5894
5878 5878 5878 5878 5878 5879 5879 5879 5880 5880 5881 5881 5881 5882 5882 5883 5883 5883 5883 5883 5884 5884 5884 5884 5885 5886 5886 5886 5887 5887 5887 5887 5888 5889 5890 5890 5891 5891 5892 5893 5893 5893 5894
5879 5879 5879 5879 5879 5879 5880 5880 5880 5881 5881 5881 5882 5882 5883 5883 5883 5883 5883 5884 5884 5884 5884 5884 5885 5886 5886 5886 5887 5887 5887 5888 5888 5889 5889 5890 5891 5891 5892 5892 5892 5893 5893
5880 5880 5879 5879 5879 5880 5880 5880 5880 5881 5881 5882 5882 5883 5883 5883 5883 5883 5883 5884 5884 5884 5884 5884 5885 5885 5886 5886 5886 5887 5887 5887 5888 5888 5889 5890 5890 5891 5891 5891 5892 5892 5892
5881 5880 5880 5880 5880 5880 5881 5881 5881 5881 5881 5882 5882 5882 5883 5883 5883 5883 5883 5883 5883 5884 5884 5884 5884 5885 5885 5886 5886 5886 5887 5887 5887 5888 5888 5889 5890 5890 5890 5890 5891 5891 5891
5881 5881 5881 5881 5881 5881 5881 5882 5882 5882 5882 5882 5882 5882 5883 5883 5883 5883 5883 5883 5883 5883 5883 5883 5884 5884 5885 5885 5885 5886 5886 5886 5886 5887 5888 5888 5889 5889 5889 5890 5890 5890 5890
5882 5882 5882 5882 5882 5882 5882 5882 5882 5882 5882 5882 5882 5882 5882 5882 5882 5883 5883 5883 5883 5883 5883 5883 5883 5883 5883 5884 5884 5885 5885 5885 5885 5886 5886 5887 5888 5888 5888 5888 5889 5889 5889
5883 5883 5883 5882 5882 5882 5882 5882 5882 5882 5882 5882 5882 5881 5881 5881 5882 5882 5882 5882 5882 5882 5882 5882 5882 5882 5882 5883 5883 5884 5884 5884 5884 5885 5885 5885 5886 5886 5887 5887 5887 5887 5888
5884 5884 5883 5883 5883 5883 5882 5882 5882 5882 5881 5881 5881 5881 5880 5881 5881 5881 5882 5882 5882 5882 5882 5882 5881 5881 5882 5882 5882 5882 5883 5883 5883 5883 5883 5884 5884 5884 5885 5885 5886 5886 5886
5885 5884 5884 5883 5883 5883 5883 5882 5882 5881 5881 5881 5880 5880 5880 5880 5881 5881 5881 5881 5881 5881 5881 5881 5881 5881 5881 5881 5881 5881 5881 5882 5882 5882 5881 5882 5882 5883 5883 5883 5884 5884 5884
5885 5884 5884 5883 5883 5883 5883 5882 5882 5882 5881 5881 5880 5880 5880 5880 5880 5880 5881 5881 5880 5880 5880 5880 5879 5879 5879 5879 5880 5880 5880 5880 5880 5880 5880 5880 5880 5881 5881 5881 5881 5882 5882
5885 5885 5884 5883 5883 5883 5882 5882 5882 5881 5881 5881 5880 5880 5880 5880 5880 5880 5880 5880 5879 5879 5879 5879 5878 5878 5878 5878 5878 5879 5879 5879 5879 5879 5879 5879 5879 5879 5879 5879 5880 5880 5880
5886 5885 5884 5883 5883 5883 5882 5882 5882 5881 5881 5881 5880 5880 5880 5880 5879 5879 5879 5879 5878 5878 5878 5877 5877 5876 5876 5877 5877 5877 5877 5877 5877 5877 5877 5877 5877 5877 5877 5877 5877 5878 5878
5886 5885 5884 5884 5883 5883 5882 5881 5881 5881 5881 5880 5880 5880 5879 5879 5879 5878 5878 5877 5877 5877 5876 5876 5876 5876 5875 5875 5875 5875 5875 5875 5875 5875 5875 5875 5875 5875 5875 5875 5875 5875 5875
5886 5886 5885 5884 5883 5883 5882 5881 5881 5880 5880 5879 5879 5879 5878 5878 5877 5877 5876 5876 5875 5875 5875 5875 5874 5874 5873 5873 5873 5873 5873 5873 5873 5873 5872 5872 5872 5872 5872 5872 5872 5872 5873
5887 5886 5885 5884 5884 5883 5882 5881 5880 5879 5879 5878 5878 5877 5877 5876 5876 5875 5875 5874 5874 5873 5873 5873 5873 5872 5872 5871 5871 5871 5871 5871 5871 5870 5870 5870 5870 5870 5870 5870 5870 5870 5870
5887 5886 5885 5884 5884 5883 5882 5880 5879 5879 5878 5878 5877 5876 5876 5875 5874 5874 5873 5873 5872 5872 5871 5871 5871 5871 5870 5870 5869 5869 5869 5869 5868 5868 5868 5867 5867 5868 5868 5868 5868 5867 5867
5887 5886 5885 5884 5884 5883 5881 5880 5879 5878 5877 5876 5876 5875 5874 5873 5872 5872 5871 5871 5870 5870 5869 5869 5869 5869 5868 5868 5867 5867 5867 5866 5866 5866 5865 5865 5865 5865 5865 5865 5865 5865 5865
5887 5886 5885 5884 5883 5882 5881 5880 5879 5877 5876 5876 5875 5874 5873 5871 5870 5869 5869 5868 5868 5868 5867 5867 5867 5866 5866 5866 5865 5864 5864 5864 5863 5863 5863 5863 5863 5863 5863 5863 5863 5863 5863
5886 5885 5885 5884 5883 5882 5880 5879 5878 5876 5875 5874 5873 5872 5871 5869 5868 5867 5867 5866 5866 5865 5865 5865 5864 5864 5863 5863 5862 5862 5862 5861 5861 5861 5860 5860 5860 5861 5861 5861 5860 5861 5861
5885 5884 5883 5882 5881 5880 5879 5878 5877 5875 5874 5873 5872 5870 5869 5868 5866 5866 5865 5864 5863 5863 5863 5862 5862 5862 5861 5861 5860 5859 5859 5859 5859 5858 5858 5858 5858 5858 5858 5858 5858 5857 5858
5883 5883 5882 5881 5880 5879 5878 5876 5875 5874 5872 5871 5870 5868 5867 5866 5865 5864 5863 5862 5861 5861 5860 5860 5859 5859 5859 5858 5857 5857 5856 5856 5856 5856 5855 5855 5855 5855 5855 5855 5855 5855 5855
5882 5881 5880 5879 5878 5877 5876 5874 5873 5872 5871 5869 5868 5866 5865 5863 5862 5862 5861 5860 5859 5858 5858 5857 5857 5856 5856 5856 5855 5854 5854 5854 5853 5853 5853 5853 5853 5852 5852 5852 5852 5853 5853
5880 5879 5878 5877 5876 5875 5873 5872 5871 5870 5868 5867 5866 5864 5863 5861 5860 5859 5858 5857 5856 5856 5855 5855 5854 5854 5853 5853 5852 5852 5851 5850 5850 5850 5850 5850 5849 5849 5849 5849 5849 5850 5850
5877 5876 5876 5874 5873 5872 5871 5870 5869 5867 5866 5865 5863 5862 5861 5859 5858 5857 5856 5855 5854 5853 5853 5852 5851 5851 5850 5850 5849 5849 5848 5848 5847 5847 5847 5846 5846 5846 5845 5845 5845 5846 5846